User: anonymous   Login
Location: Fremont
(37.5480°N, 121.9880°W)
Time: 00:02:10
(UTC-08:00)
Language:

Cosmos 1766 - Orbit

View from above orbital plane
View from above orbital plane
View from above satellite
View from above satellite

Ground track
Ground track

The orbit data is extracted from the following two-line orbital elements,

1 16881U 86055A   15063.10926853  .00004026  00000-0  26295-3 0  9996
2 16881 082.5123 120.3533 0012050 053.9087 306.3255 15.07522427555334
Epoch (UTC): 04 March 2015 02:37:20
Eccentricity: 0.0012050
inclination: 82.5123°
perigee height: 535 km
apogee height: 552 km
right ascension of ascending node: 120.3533°
argument of perigee: 53.9087°
revolutions per day: 15.07522427
mean anomaly at epoch: 306.3255°
orbit number at epoch: 55533

The dashed part of the orbit path shows where the satellite is in the earth's shadow,  

DLR